STARLINK-31946, 59940

Orbit data source: Space-Track

STARLINK-31946, 59940 is a payload satellite owned by SpaceX/Seattle (US) in LEO that was launched on Sat, 01 Jun 2024 UTC via an FALCON 9 launch vehicle from the Air Force Eastern Test Range (AFETR). Payload-class satellites include a variety of spacecraft equipped with specific instruments for various scientific and technological missions. These include communications satellites like Starlink; space stations such as the ISS; scientific satellites like the Hubble; Earth observation satellites from companies like Planet Labs, Umbra, and HawkEye 360; GPS; miniature CubeSats for education and research; and military/defense satellites.

Loading next visibility...
Identifier
59940, 2024-106U
Orbit
LEO
Country
Flag of USUS
Related business
Manufacturer
SpaceX/Seattle
Mission
Operational Commercial Communications
Bus & Motor
STARLINK V2M, Unknown motor
Mass
730 kg wet, ~700 kg dry
Launch date (UTC)
2024-06-01 (2 years ago)
Launch vehicle
FALCON 9
Launch site
Air Force Eastern Test Range (AFETR)
Object type
Payload
Rocket body
Debris
Shape & HBR
Box + 2 Pan, 17.7 m
Radar Cross Section
33.884 m², Large (>1 m²)

Expand to show TLE details & history
Last TLE update: 1 day ago

TLE from 1 day ago
0 STARLINK-31946
1 59940U 24106U   26265.40703550 -.00000492  00000-0 -83704-5 0  9999
2 59940  43.0013 301.9534 0001065 272.8644  87.2085 15.27575124121238
Epoch: 2026-09-22T09:46Z
TLE epoch observation values (Epoch: 2026-09-22T09:46:07.867Z)
Latitude
-0.00006°
Longitude
154.1476°
Altitude
482.804 km
Speed
7.626 km/s
True Right ascension
20h 07m 48s
True Declination
0° 00' 00"
Sunlit
Object was in full shadow at epoch
Visualization orbit readout
Latitude
Unknown
Longitude
Unknown
Altitude
Unknown
Speed
Unknown
Apparent Right ascension
Unknown
Apparent Declination
Unknown
Sunlit
N/A
Visualization observer readout
Local Sidereal Time
03:49:08
Azimuth
Unknown
Elevation
Unknown
Doppler factor
Unknown
Orbital elements
Apogee altitude
485.74 km
Perigee altitude
484.278 km
Semi-major axis
6,863.146 km
Eccentricity
0.00011
Inclination
43.0013°
RAAN
301.9534°
Arg. of periapsis
272.8644°
True anomaly
87.22069°
Mean anomaly
87.2085°
Eccentric anomaly
87.21459°
Mean motion
3.81732 °/min
Orbital period
94.31 mins
BSTAR
-0.0000083704
Loading maneuver chart data...
Computing Atmospheric mass density...
Loading historical data...
Loading historical data...
Loading historical data...
Loading historical data...
Loading historical data...
Loading historical data...
Loading historical data...

Documentation

Showing up to 5 results
|